Date String (YYYY-MM-DD hh:mm:ss) UTC,Instrument flags,Ambient pressure (hPa),Sample flow (lpm),Bypass flow (lpm),Sample temperature (°C),Ambient temperature (°C),ASC tube jacket temperature (°C),LED temperature (°C),Box temperature (°C),Sample RH (%),Span deviation,Mass concentration (μg/m³),Mass concentration (μg/m³),Mass concentration (μg/m³)
DateTimeUTC,F1_M11,P_M11,Q1_M11,Q2_M11,T1_M11,T2_M11,T3_M11,T4_M11,T5_M11,U1_M11,ZSPAN_M11,X0_M11,X2_M11,X1_M11
2022-10-07 05:00:00,,0836.5,5.00,0.00,30.3,28.8,00.0,39.1,32.1,21.1,0001.2,0031.48,0014.58,0012.21
2022-10-07 05:01:00,,0836.5,4.99,0.00,30.3,28.8,00.0,39.1,32.1,21.2,0000.9,0030.87,0014.71,0012.30
2022-10-07 05:02:00,,0836.5,5.00,0.00,30.3,28.8,00.0,39.1,32.1,21.3,0000.5,0031.63,0014.87,0012.45
2022-10-07 05:03:00,,0836.5,5.01,0.00,30.3,28.8,00.0,39.1,32.1,21.3,0000.3,0031.47,0014.91,0012.60
2022-10-07 05:04:00,,0836.5,5.00,0.00,30.3,28.8,00.0,39.0,32.1,21.4,0000.1,0031.43,0015.05,0012.79
2022-10-07 05:05:00,,0836.5,4.98,0.00,30.3,28.8,00.0,39.0,32.1,21.4,0000.3,0031.24,0015.30,0013.01
2022-10-07 05:06:00,,0836.5,5.00,0.00,30.3,28.8,00.0,39.0,32.1,21.4,0000.6,0030.82,0015.55,0013.24
2022-10-07 05:07:00,,0836.5,5.00,0.00,30.3,28.8,00.0,39.0,32.1,21.4,0000.6,0030.26,0015.82,0013.50
2022-10-07 05:08:00,,0836.6,5.00,0.00,30.3,28.8,00.0,39.0,32.1,21.5,0000.9,0030.51,0016.05,0013.72
2022-10-07 05:09:00,,0836.6,4.99,0.00,30.3,28.8,00.0,39.0,32.1,21.6,0000.8,0030.34,0016.32,0013.90
2022-10-07 05:10:00,,0836.6,5.00,0.00,30.3,28.7,00.0,39.0,32.1,21.6,0000.8,0030.60,0016.52,0014.03
2022-10-07 05:11:00,,0836.6,5.01,0.00,30.3,28.8,00.0,39.0,32.1,21.5,0000.8,0030.54,0016.67,0014.14
2022-10-07 05:12:00,,0836.6,5.00,0.00,30.3,28.8,00.0,39.0,32.0,21.5,0001.1,0030.78,0016.80,0014.22
2022-10-07 05:13:00,,0836.6,4.98,0.00,30.3,28.7,00.0,39.0,32.0,21.4,0001.4,0032.01,0016.86,0014.24
2022-10-07 05:14:00,,0836.6,5.00,0.00,30.3,28.7,00.0,39.0,32.1,21.5,0001.6,0032.38,0016.95,0014.28
2022-10-07 05:15:00,,0836.6,5.01,0.00,30.3,28.7,00.0,39.0,32.0,21.5,0001.7,0031.94,0016.96,0014.29
2022-10-07 05:16:00,,0836.6,5.00,0.00,30.3,28.7,00.0,39.0,32.1,21.5,0001.6,0031.64,0016.98,0014.28
2022-10-07 05:17:00,,0836.7,5.00,0.00,30.3,28.7,00.0,39.0,32.0,21.5,0001.5,0032.14,0017.01,0014.26
2022-10-07 05:18:00,,0836.7,5.00,0.00,30.2,28.8,00.0,39.0,32.0,21.5,0001.7,0032.15,0017.03,0014.22
2022-10-07 05:19:00,,0836.7,5.01,0.00,30.3,28.8,00.0,39.0,32.1,21.5,0001.5,0032.12,0017.12,0014.23
2022-10-07 05:20:00,,0836.7,4.99,0.00,30.3,28.8,00.0,39.0,32.1,21.5,0001.2,0031.82,0017.06,0014.21
2022-10-07 05:21:00,,0836.7,5.01,0.00,30.2,28.8,00.0,39.0,32.1,21.5,0001.1,0031.17,0017.00,0014.22
2022-10-07 05:22:00,,0836.7,4.99,0.00,30.3,28.8,00.0,39.0,32.1,21.6,0001.1,0031.74,0016.98,0014.21
2022-10-07 05:23:00,,0836.7,5.00,0.00,30.3,28.8,00.0,39.1,32.1,21.6,0001.0,0031.65,0016.97,0014.23
2022-10-07 05:24:00,,0836.7,5.01,0.00,30.3,28.8,00.0,39.1,32.1,21.6,0000.9,0030.47,0016.99,0014.27
2022-10-07 05:25:00,,0836.8,5.00,0.00,30.3,28.8,00.0,39.1,32.1,21.7,0000.9,0030.12,0017.07,0014.31
2022-10-07 05:26:00,,0836.7,5.00,0.00,30.3,28.8,00.0,39.0,32.1,21.7,0000.9,0029.90,0017.15,0014.34
2022-10-07 05:27:00,,0836.8,4.99,0.00,30.3,28.8,00.0,39.0,32.1,21.7,0001.1,0029.84,0017.14,0014.34
2022-10-07 05:28:00,,0836.8,5.01,0.00,30.3,28.8,00.0,39.0,32.1,21.7,0001.1,0030.88,0017.11,0014.33
2022-10-07 05:29:00,,0836.8,5.00,0.00,30.3,28.7,00.0,39.0,32.1,21.7,0001.0,0030.34,0017.02,0014.32
2022-10-07 05:30:00,,0836.8,5.00,0.00,30.3,28.7,00.0,39.0,32.1,21.7,0001.2,0030.09,0016.91,0014.28
2022-10-07 05:31:00,,0836.9,5.00,0.00,30.2,28.7,00.0,39.0,32.0,21.7,0001.5,0030.83,0016.86,0014.25
2022-10-07 05:32:00,,0836.8,5.01,0.00,30.2,28.7,00.0,39.0,32.0,21.7,0001.7,0031.06,0016.85,0014.20
2022-10-07 05:33:00,,0836.8,5.00,0.00,30.2,28.7,00.0,39.0,32.0,21.7,0001.9,0030.49,0016.91,0014.17
2022-10-07 05:34:00,,0836.9,5.01,0.00,30.2,28.7,00.0,39.0,32.0,21.7,0002.0,0030.53,0016.86,0014.11
2022-10-07 05:35:00,,0836.9,5.00,0.00,30.2,28.7,00.0,39.0,32.0,21.8,0002.0,0031.11,0016.78,0014.05
2022-10-07 05:36:00,,0836.9,5.00,0.00,30.2,28.7,00.0,39.0,32.0,21.8,0002.0,0031.62,0016.69,0014.00
2022-10-07 05:37:00,,0836.9,5.00,0.00,30.2,28.7,00.0,39.0,32.0,21.8,0001.5,0031.97,0016.60,0013.94
2022-10-07 05:38:00,,0836.9,4.99,0.00,30.2,28.8,00.0,39.0,32.0,21.8,0001.4,0032.09,0016.57,0013.91
2022-10-07 05:39:00,,0836.9,5.01,0.00,30.2,28.8,00.0,39.0,32.0,21.8,0001.3,0031.67,0016.57,0013.88
2022-10-07 05:40:00,,0836.9,4.99,0.00,30.2,28.8,00.0,39.0,32.0,21.8,0001.1,0032.49,0016.59,0013.88
2022-10-07 05:41:00,,0837.0,5.00,0.00,30.2,28.8,00.0,39.0,32.0,21.8,0000.8,0032.18,0016.59,0013.87
2022-10-07 05:42:00,,0836.9,5.00,0.00,30.2,28.7,00.0,39.0,32.0,21.8,0000.7,0031.24,0016.63,0013.87
2022-10-07 05:43:00,,0836.9,5.01,0.00,30.2,28.7,00.0,39.0,32.0,21.8,0000.6,0031.68,0016.60,0013.88
2022-10-07 05:44:00,,0836.9,4.99,0.00,30.2,28.7,00.0,39.0,32.0,21.8,0000.5,0031.54,0016.49,0013.87
2022-10-07 05:45:00,,0836.9,5.01,0.00,30.2,28.7,00.0,39.0,32.0,21.8,0000.4,0031.91,0016.45,0013.88
2022-10-07 05:46:00,,0836.9,5.01,0.00,30.2,28.8,00.0,39.0,32.0,21.9,0000.7,0032.37,0016.55,0013.92
2022-10-07 05:47:00,,0836.9,4.99,0.00,30.2,28.8,00.0,39.0,32.0,22.0,0000.6,0031.94,0016.59,0013.98
2022-10-07 05:48:00,,0836.9,5.01,0.00,30.2,28.8,00.0,39.0,32.0,22.1,0001.0,0031.30,0016.62,0014.06
2022-10-07 05:49:00,,0836.9,5.01,0.00,30.2,28.8,00.0,39.0,32.0,22.1,0001.1,0030.75,0016.71,0014.12
2022-10-07 05:50:00,,0836.9,4.99,0.00,30.2,28.8,00.0,39.0,32.0,22.2,0001.4,0030.16,0016.84,0014.22
2022-10-07 05:51:00,,0836.9,4.99,0.00,30.2,28.7,00.0,39.0,32.0,22.2,0002.0,0030.33,0017.01,0014.31
2022-10-07 05:52:00,,0836.9,5.01,0.00,30.2,28.7,00.0,39.0,32.0,22.2,0002.1,0030.44,0017.10,0014.39
2022-10-07 05:53:00,,0836.9,4.99,0.00,30.2,28.7,00.0,39.0,32.0,22.2,0002.1,0030.57,0017.11,0014.48
2022-10-07 05:54:00,,0837.0,5.01,0.00,30.2,28.7,00.0,39.0,32.0,22.2,0002.2,0030.59,0017.22,0014.58
2022-10-07 05:55:00,,0837.0,5.01,0.00,30.2,28.7,00.0,39.0,32.0,22.1,0002.2,0030.61,0017.38,0014.69
2022-10-07 05:56:00,,0836.9,4.99,0.00,30.2,28.7,00.0,39.0,32.0,22.1,0002.0,0030.26,0017.53,0014.79
2022-10-07 05:57:00,,0837.0,4.99,0.00,30.2,28.7,00.0,39.0,32.0,22.1,0001.8,0029.02,0017.60,0014.86
2022-10-07 05:58:00,,0837.1,5.02,0.00,30.2,28.7,00.0,39.0,32.0,22.1,0001.8,0029.49,0017.71,0014.91
2022-10-07 05:59:00,,0837.1,5.00,0.00,30.2,28.7,00.0,39.0,32.0,22.1,0001.8,0030.42,0017.88,0014.99
